This is the latest recevied weather packets stored in our database for station/object K9ABJ. If no packets are shown the sender has not sent any weather packets the latest 10 day(s).
| Time | Temp. | Humidity | Pressure | Rain* | Wind** | Luminosity | Snow |
|---|---|---|---|---|---|---|---|
| 1787586143 | 22.22° C | 72% | 1017.6 hPa | 0 mm | - | 541 W/m² | - |
| 1787585839 | 23.33° C | 70% | 1017.9 hPa | 0 mm | - | 565 W/m² | - |
| 1787585539 | 23.89° C | 67% | 1017.6 hPa | 0 mm | - | 586 W/m² | - |
| 1787585234 | 22.78° C | 70% | 1017.7 hPa | 0 mm | - | 563 W/m² | - |
| 1787584934 | 23.89° C | 69% | 1017.6 hPa | 0 mm | - | 560 W/m² | - |
| 1787584628 | 22.78° C | 69% | 1017.4 hPa | 0 mm | - | 617 W/m² | - |
| 1787584327 | 22.78° C | 72% | 1017.3 hPa | 0 mm | - | 610 W/m² | - |
| 1787584026 | 21.11° C | 75% | 1017.5 hPa | 0 mm | - | 595 W/m² | - |
| 1787583722 | 21.11° C | 75% | 1017.5 hPa | 0 mm | - | 398 W/m² | - |
| 1787583422 | 20.56° C | 77% | 1017.6 hPa | 0 mm | - | 429 W/m² | - |
| 1787583120 | 20.56° C | 77% | 1017.3 hPa | 0 mm | - | 688 W/m² | - |
| 1787582815 | 20.56° C | 74% | 1017.4 hPa | 0 mm | - | 451 W/m² | - |
| 1787582510 | 22.78° C | 70% | 1017.3 hPa | 0 mm | - | 524 W/m² | - |
| 1787582206 | 22.78° C | 69% | 1017.5 hPa | 0 mm | - | 500 W/m² | - |
| 1787581905 | 22.22° C | 71% | 1017.3 hPa | 0 mm | - | 385 W/m² | - |
| 1787581601 | 20° C | 76% | 1017.6 hPa | 0 mm | - | 221 W/m² | - |
| 1787581300 | 21.67° C | 73% | 1017.3 hPa | 0 mm | - | 220 W/m² | - |
| 1787580995 | 20.56° C | 75% | 1017.6 hPa | 0 mm | - | 257 W/m² | - |
| 1787580691 | 19.44° C | 77% | 1017.5 hPa | 0 mm | - | 388 W/m² | - |
| 1787397020 | 17.78° C | 95% | 1012.3 hPa | 0.51 mm | - | 1 W/m² | - |
| 1787396716 | 17.78° C | 95% | 1012.3 hPa | 0.51 mm | - | 1 W/m² | - |
| 1787396412 | 17.78° C | 95% | 1012.5 hPa | 0.51 mm | - | 1 W/m² | - |
| 1787396111 | 17.78° C | 95% | 1012.2 hPa | 0 mm | - | 0 W/m² | - |
| 1787395807 | 17.78° C | 95% | 1012.7 hPa | 0 mm | - | 0 W/m² | - |
| 1787395507 | 17.78° C | 95% | 1012.4 hPa | 0 mm | - | 0 W/m² | - |
* Rain latest hour (hover to see other rain measurements)
** Current wind speed in m/s (hover to see current wind gust speed)